Location: Skymont Scout Reservation
(35.4344°N, 85.8742°W)
Time: 17:20:34
(UTC-05:00)

ISS - All Passes

Search period start: 01 September 2015 00:00
Search period end: 11 September 2015 00:00
Orbit: 400 x 402 km, 51.6° (Epoch: 01 September)

Date Brightness Start Highest point End Pass type
(mag) Time Alt. Az. Time Alt. Az. Time Alt. Az.
01 Sep - 08:03:11 10° SSW 08:06:19 47° SE 08:09:28 10° ENE daylight
01 Sep - 09:40:36 10° WNW 09:42:55 18° NNW 09:45:13 10° NNE daylight
01 Sep - 14:33:40 10° NNW 14:35:58 18° NNE 14:38:18 10° ENE daylight
01 Sep - 16:09:26 10° WNW 16:12:34 45° SW 16:15:40 10° SSE daylight
02 Sep - 07:10:38 10° S 07:13:09 21° SE 07:15:44 10° ENE daylight
02 Sep - 08:46:32 10° W 08:49:27 30° NW 08:52:23 10° NNE daylight
02 Sep - 13:41:15 10° N 13:42:24 11° NNE 13:43:38 10° NE daylight
02 Sep - 15:16:05 10° NW 15:19:19 76° NE 15:22:33 10° SE daylight
03 Sep - 07:52:53 10° WSW 07:56:06 61° NW 07:59:19 10° NE daylight
03 Sep - 09:32:29 10° NNW 09:33:06 10° NNW 09:33:38 10° NNW daylight
03 Sep - 14:22:57 10° NNW 14:25:59 35° NE 14:29:01 10° ESE daylight
03 Sep - 15:59:57 10° W 16:02:13 17° SW 16:04:25 10° S daylight
04 Sep - 06:59:38 10° SW 07:02:50 58° SE 07:06:03 10° NE daylight
04 Sep - 08:37:23 10° WNW 08:39:30 16° NNW 08:41:35 10° NNE daylight
04 Sep - 13:30:04 10° NNW 13:32:33 20° NNE 13:35:04 10° E daylight
04 Sep - 15:06:01 10° WNW 15:09:04 37° SW 15:12:04 10° SSE daylight
05 Sep - 06:06:55 10° S 06:09:38 25° SE 06:12:25 10° ENE daylight
05 Sep - 07:43:12 10° W 07:46:01 26° NW 07:48:49 10° NNE daylight
05 Sep - 12:37:29 10° N 12:39:00 13° NNE 12:40:36 10° NE daylight
05 Sep - 14:12:35 10° NW 14:15:51 88° SW 14:19:05 10° SE daylight
06 Sep - 05:15:14 10° SSE 05:16:31 12° SE 05:17:55 10° ESE visible
06 Sep - 06:49:27 10° WSW 06:52:38 50° NW 06:55:49 10° NE daylight
06 Sep - 13:19:26 10° NW 13:22:33 42° NE 13:25:38 10° ESE daylight
06 Sep - 14:56:47 10° W 14:58:43 15° SW 15:00:32 10° SSW daylight
07 Sep - 05:56:06 10° SW 05:59:20 72° SE 06:02:36 10° NE visible
07 Sep - 07:34:13 10° WNW 07:36:06 14° NNW 07:37:57 10° N daylight
07 Sep - 12:26:29 10° NNW 12:29:07 23° NNE 12:31:48 10° E daylight
07 Sep - 14:02:39 10° WNW 14:05:35 31° SW 14:08:28 10° SSE daylight
08 Sep - 05:03:15 10° SSW 05:06:09 30° SE 05:09:05 10° ENE visible
08 Sep - 06:39:54 10° W 06:42:36 23° NNW 06:45:15 10° NNE daylight
08 Sep - 11:33:48 10° N 11:35:37 14° NNE 11:37:29 10° ENE daylight
08 Sep - 13:09:08 10° NW 13:12:23 72° SW 13:15:36 10° SE daylight
09 Sep - 04:11:11 10° SSE 04:13:00 14° SE 04:14:56 10° E visible
09 Sep - 05:46:04 10° WSW 05:49:10 42° NW 05:52:18 10° NE visible
09 Sep - 12:15:55 10° NW 12:19:05 50° NE 12:22:15 10° ESE daylight
09 Sep - 13:53:48 10° WSW 13:55:12 12° SW 13:56:30 10° SSW daylight
10 Sep - 04:52:37 10° SW 04:55:52 87° SE 04:59:08 10° NE visible
10 Sep - 06:31:05 10° NW 06:32:43 13° NNW 06:34:15 10° N daylight
10 Sep - 11:22:55 10° NNW 11:25:42 26° NNE 11:28:30 10° E daylight
10 Sep - 12:59:19 10° WNW 13:02:04 25° SW 13:04:48 10° S daylight
